TimeEST,TemperatureF,Dew PointF,Humidity,Sea Level PressureIn,VisibilityMPH,Wind Direction,Wind SpeedMPH,Gust SpeedMPH,PrecipitationIn,Events,Conditions,WindDirDegrees,DateUTC
12:14 AM,57.2,48.2,72,29.91,10.0,SSW,16.1,25.3,N/A,,Overcast,210,2012-12-02 05:14:00
12:34 AM,56.1,48.6,76,29.90,10.0,SW,16.1,26.5,N/A,Rain,Light Rain,220,2012-12-02 05:34:00
12:54 AM,56.3,48.2,74,29.89,10.0,SSW,16.1,27.6,N/A,Rain,Rain,210,2012-12-02 05:54:00
1:14 AM,55.8,48.2,76,29.89,10.0,SW,16.1,20.7,N/A,Rain,Rain,220,2012-12-02 06:14:00
1:34 AM,54.9,48.6,79,29.89,10.0,SSW,12.7,21.9,N/A,Rain,Light Rain,210,2012-12-02 06:34:00
1:54 AM,54.9,48.6,79,29.88,10.0,SSW,15.0,23.0,N/A,,Overcast,210,2012-12-02 06:54:00
2:14 AM,54.5,48.2,79,29.88,10.0,SSW,12.7,17.3,N/A,,Overcast,210,2012-12-02 07:14:00
2:34 AM,55.2,47.3,75,29.88,10.0,SSW,12.7,-,N/A,,Overcast,210,2012-12-02 07:34:00
2:54 AM,55.6,46.9,73,29.87,10.0,SW,10.4,-,N/A,,Overcast,220,2012-12-02 07:54:00
3:14 AM,55.4,46.6,72,29.87,10.0,SW,11.5,-,N/A,,Overcast,220,2012-12-02 08:14:00
3:34 AM,55.8,46.8,72,29.89,10.0,WSW,8.1,-,N/A,,Overcast,240,2012-12-02 08:34:00
3:54 AM,54.9,47.7,77,29.88,7.0,SW,9.2,-,0.02,Rain,Heavy Rain,230,2012-12-02 08:54:00
4:14 AM,53.1,48.7,85,29.87,7.0,WSW,6.9,-,0.03,Rain,Rain,240,2012-12-02 09:14:00
4:34 AM,52.7,50.0,91,29.87,4.0,SW,13.8,-,0.13,Rain,Heavy Rain,230,2012-12-02 09:34:00
4:54 AM,52.7,50.0,91,29.87,7.0,SW,9.2,-,0.18,Rain,Rain,220,2012-12-02 09:54:00
5:14 AM,52.9,50.2,91,29.87,7.0,SW,11.5,17.3,0.01,Rain,Rain,220,2012-12-02 10:14:00
5:34 AM,52.7,50.0,91,29.87,10.0,SW,9.2,-,0.01,,Overcast,230,2012-12-02 10:34:00
5:54 AM,52.2,50.0,92,29.87,10.0,WSW,6.9,-,0.01,,Overcast,240,2012-12-02 10:54:00
6:14 AM,52.0,50.0,93,29.87,10.0,SW,5.8,-,N/A,,Overcast,230,2012-12-02 11:14:00
6:34 AM,52.3,49.8,91,29.87,7.0,SW,8.1,-,N/A,Rain,Rain,220,2012-12-02 11:34:00
6:54 AM,52.2,50.0,92,29.87,10.0,SSW,10.4,-,N/A,,Overcast,210,2012-12-02 11:54:00
7:14 AM,52.2,50.2,93,29.88,3.0,SW,9.2,-,N/A,Rain,Light Rain,220,2012-12-02 12:14:00
7:34 AM,52.3,51.1,95,29.88,3.0,SSW,10.4,-,0.01,,Light Drizzle,210,2012-12-02 12:34:00
7:54 AM,52.3,51.3,96,29.88,3.0,SW,9.2,-,0.01,Rain,Light Rain,220,2012-12-02 12:54:00
8:14 AM,52.7,51.4,95,29.88,4.0,SSW,9.2,-,N/A,,Light Drizzle,210,2012-12-02 13:14:00
8:34 AM,52.7,51.4,95,29.88,1.8,SW,9.2,-,N/A,,Light Drizzle,220,2012-12-02 13:34:00
8:54 AM,52.7,51.8,97,29.89,2.0,WSW,8.1,-,N/A,,Overcast,240,2012-12-02 13:54:00
9:14 AM,52.9,52.0,97,29.90,1.0,WSW,10.4,-,N/A,,Drizzle,240,2012-12-02 14:14:00
9:34 AM,53.1,52.2,97,29.90,1.2,WSW,10.4,-,N/A,,Drizzle,240,2012-12-02 14:34:00
9:54 AM,53.2,52.2,96,29.90,1.5,WSW,10.4,-,0.01,,Drizzle,240,2012-12-02 14:54:00
10:14 AM,53.4,52.2,95,29.91,2.0,WSW,11.5,-,N/A,,Light Drizzle,250,2012-12-02 15:14:00
10:34 AM,53.6,52.7,97,29.91,2.5,WSW,11.5,-,N/A,,Overcast,250,2012-12-02 15:34:00
10:54 AM,54.0,52.7,95,29.92,4.0,West,10.4,-,N/A,,Overcast,260,2012-12-02 15:54:00
11:14 AM,54.1,52.7,95,29.92,4.0,West,10.4,-,N/A,,Overcast,270,2012-12-02 16:14:00
11:34 AM,54.1,52.3,94,29.92,3.0,West,11.5,16.1,N/A,,Overcast,270,2012-12-02 16:34:00
11:54 AM,54.1,52.2,93,29.92,3.0,West,10.4,16.1,N/A,,Overcast,270,2012-12-02 16:54:00
12:14 PM,54.5,52.2,92,29.92,3.0,West,10.4,-,N/A,,Overcast,280,2012-12-02 17:14:00
12:34 PM,54.9,52.3,91,29.92,4.0,West,11.5,-,N/A,,Overcast,280,2012-12-02 17:34:00
12:54 PM,55.2,51.8,88,29.92,5.0,WNW,11.5,-,N/A,,Overcast,290,2012-12-02 17:54:00
1:14 PM,55.9,51.8,86,29.92,5.0,WNW,10.4,-,N/A,,Overcast,290,2012-12-02 18:14:00
1:34 PM,55.2,50.4,84,29.92,5.0,WNW,11.5,18.4,N/A,,Haze,290,2012-12-02 18:34:00
1:54 PM,55.4,50.4,83,29.92,5.0,WNW,8.1,-,N/A,,Overcast,290,2012-12-02 18:54:00
2:14 PM,55.9,50.0,80,29.92,7.0,WNW,11.5,-,N/A,,Overcast,300,2012-12-02 19:14:00
2:34 PM,55.9,49.1,78,29.92,7.0,WNW,11.5,-,N/A,,Overcast,290,2012-12-02 19:34:00
2:54 PM,56.1,48.9,77,29.93,7.0,WNW,10.4,-,N/A,,Overcast,290,2012-12-02 19:54:00
3:14 PM,55.8,48.4,76,29.94,7.0,WNW,9.2,-,N/A,,Overcast,290,2012-12-02 20:14:00
3:34 PM,55.8,47.8,75,29.95,7.0,West,9.2,-,N/A,,Overcast,280,2012-12-02 20:34:00
3:54 PM,55.6,47.5,74,29.97,7.0,West,12.7,-,N/A,,Overcast,260,2012-12-02 20:54:00
4:14 PM,54.7,47.3,76,29.98,7.0,West,6.9,-,N/A,,Overcast,270,2012-12-02 21:14:00
4:34 PM,53.1,46.8,79,29.98,7.0,West,8.1,-,N/A,,Overcast,260,2012-12-02 21:34:00
4:54 PM,51.6,46.4,82,29.98,5.0,West,6.9,-,N/A,,Haze,260,2012-12-02 21:54:00
5:14 PM,51.8,46.4,82,30.00,5.0,Calm,Calm,-,N/A,,Haze,0,2012-12-02 22:14:00
5:34 PM,50.9,45.7,82,30.01,7.0,West,5.8,-,N/A,,Scattered Clouds,270,2012-12-02 22:34:00
5:54 PM,50.2,45.1,83,30.02,7.0,West,5.8,-,N/A,,Clear,270,2012-12-02 22:54:00
6:14 PM,48.2,45.5,90,30.03,5.0,West,5.8,-,N/A,,Clear,270,2012-12-02 23:14:00
6:34 PM,47.1,43.3,87,30.04,5.0,North,3.5,-,N/A,,Clear,350,2012-12-02 23:34:00
6:54 PM,47.1,44.6,91,30.05,5.0,North,3.5,-,N/A,,Mostly Cloudy,350,2012-12-02 23:54:00
7:14 PM,46.4,43.7,90,30.06,7.0,North,3.5,-,N/A,,Overcast,360,2012-12-03 00:14:00
7:34 PM,47.7,42.8,83,30.07,7.0,Calm,Calm,-,N/A,,Overcast,0,2012-12-03 00:34:00
7:54 PM,48.4,42.8,81,30.07,7.0,Calm,Calm,-,N/A,,Overcast,0,2012-12-03 00:54:00
8:14 PM,47.5,42.6,83,30.08,7.0,Calm,Calm,-,N/A,,Overcast,0,2012-12-03 01:14:00
8:34 PM,46.0,43.0,89,30.08,5.0,Calm,Calm,-,N/A,,Overcast,0,2012-12-03 01:34:00
8:54 PM,47.5,42.6,83,30.09,7.0,Calm,Calm,-,N/A,,Overcast,0,2012-12-03 01:54:00
9:14 PM,47.3,42.6,84,30.09,7.0,Calm,Calm,-,N/A,,Overcast,0,2012-12-03 02:14:00
9:34 PM,46.8,43.0,87,30.08,5.0,Calm,Calm,-,N/A,,Overcast,0,2012-12-03 02:34:00
9:54 PM,46.4,42.6,87,30.08,7.0,Calm,Calm,-,N/A,,Overcast,0,2012-12-03 02:54:00
10:14 PM,45.1,42.6,91,30.08,5.0,SE,3.5,-,N/A,,Overcast,140,2012-12-03 03:14:00
10:34 PM,44.6,42.4,92,30.09,5.0,Calm,Calm,-,N/A,,Mostly Cloudy,0,2012-12-03 03:34:00
10:54 PM,43.2,41.0,92,30.08,4.0,Calm,Calm,-,N/A,,Mostly Cloudy,0,2012-12-03 03:54:00
11:14 PM,42.3,41.2,96,30.09,2.5,Calm,Calm,-,N/A,,Scattered Clouds,0,2012-12-03 04:14:00
11:34 PM,43.2,42.3,97,30.08,3.0,ESE,3.5,-,N/A,,Clear,120,2012-12-03 04:34:00
11:54 PM,41.0,40.1,97,30.09,3.0,SE,3.5,-,N/A,,Scattered Clouds,130,2012-12-03 04:54:00